This demonstration page uses our WeatherBlox Daily Observations layout. Learn more.

Left ArrowRight Arrow

31.84235, -102.49876

Hourly Observations for August 1, 2017

Temp ( °F °C ) Dew Point ( °F °C ) Humidity (%) Winds ( mph kmh ) Pressure ( in mb ) Visibility ( mi km ) Precip ( " mm )
12:53 am 00:53 Clear 81 27.2 62 16.7 53 53 SE 7 11 29.96 1015 10 16 0.00 0.00
1:53 am 01:53 Mostly Cloudy 80 26.7 65 18.3 60 60 ENE 8 13 29.96 1015 10 16 0.00 0.00
2:53 am 02:53 Cloudy 74 23.3 65 18.3 74 74 N 21 33 30.00 1016 10 16 0.00 0.00
3:53 am 03:53 Cloudy with Rain 70 21.1 67 19.4 90 90 N 17 28 30.01 1016 7 11 0.06 1.52
4:36 am 04:36 Cloudy 70 21.1 68 20 93 93 NNW 13 20 30.00 1016 10 16 0.00 0.03
4:53 am 04:53 Cloudy with Nearby Thunderstorms 70 21.1 67 19.4 90 90 N 15 24 30.00 1016 10 16 0.00 0.03
5:29 am 05:29 Cloudy with Thunderstorms 69 20.6 67 19.4 93 93 N 9 15 30.00 1016 5 8 0.06 1.52
5:44 am 05:44 Cloudy with Nearby Thunderstorms 69 20.6 67 19.4 93 93 N 7 11 30.00 1016 5 8 0.11 2.79
5:53 am 05:53 Cloudy with Thunderstorms 69 20.6 67 19.4 93 93 NNW 7 11 30.01 1016 4 6 0.14 3.56
6:09 am 06:09 Cloudy with Nearby Thunderstorms 69 20.6 67 19.4 93 93 NNE 8 13 30.00 1016 6 10 0.02 0.51
6:53 am 06:53 Mostly Cloudy with Nearby Thunderstorms 69 20.6 67 19.4 93 93 NNW 7 11 30.01 1016 8 13 0.05 1.27
7:06 am 07:06 Cloudy with Strong Thunderstorms 69 20.6 68 20 96 96 WSW 9 15 30.03 1017 3 5 0.05 1.27
7:32 am 07:32 Cloudy with Strong Thunderstorms 69 20.6 68 20 96 96 W 8 13 30.03 1017 2 3 0.13 3.30
7:41 am 07:41 Cloudy with Nearby Thunderstorms 69 20.6 68 20 96 96 W 7 11 30.03 1017 4 6 0.16 4.06
7:53 am 07:53 Cloudy with Nearby Thunderstorms 69 20.6 68 20 96 96 W 7 11 30.04 1017 3 5 0.19 4.83
8:09 am 08:09 Cloudy with Heavy Rain 69 20.6 68 20 96 96 WSW 7 11 30.03 1017 4 6 0.03 0.76
8:50 am 08:50 Cloudy with Rain 68 20 66 19 94 94 Calm 30.06 1018 2 3 0.19 4.83
8:53 am 08:53 Cloudy with Rain 68 20 66 18.9 93 93 Calm 30.04 1017 3 4 0.20 5.08
9:00 am 09:00 Cloudy with Rain 69 20.6 67 19.4 93 93 Calm 30.03 1017 4 6 0.00 0.03
9:53 am 09:53 Partly Cloudy with Light Rain 69 20.6 68 20 96 96 E 6 9 30.03 1017 9 14 0.00 0.00
10:53 am 10:53 Mostly Cloudy with Light Rain 72 22.2 66 18.9 82 82 ENE 6 9 30.02 1017 10 16 0.00 0.00
11:49 am 11:49 Mostly Cloudy 73 23 68 20 83 83 ENE 5 7 29.97 1015 10 16 0.00 0.00
11:53 am 11:53 Mostly Cloudy 74 23.3 68 20 82 82 NE 5 7 30.03 1017 10 16 0.00 0.00
12:01 pm 12:01 Mostly Cloudy 74 23.3 69 20.6 85 85 NE 3 6 30.00 1016 10 16 0.00 0.00
12:53 pm 12:53 Mostly Cloudy 76 24.4 67 19.4 74 74 SE 6 9 30.02 1017 10 16 0.00 0.00
1:33 pm 13:33 Mostly Cloudy 76 24.4 67 19.4 74 74 VRB 6 9 29.97 1015 10 16 0.00 0.00
1:53 pm 13:53 Cloudy 77 25 67 19.4 71 71 VRB 5 7 30.01 1016 10 16 0.00 0.00
2:34 pm 14:34 Mostly Cloudy 79 26.1 67 19.4 67 67 VRB 5 7 29.94 1014 10 16 0.00 0.00
2:53 pm 14:53 Partly Cloudy 79 26.1 67 19.4 67 67 WSW 3 6 30.00 1016 10 16 0.00 0.00
3:53 pm 15:53 Cloudy 81 27.2 67 19.4 62 62 SSE 6 9 29.98 1015 10 16 0.00 0.00
4:53 pm 16:53 Mostly Cloudy 80 26.7 66 18.9 62 62 S 7 11 29.97 1015 10 16 0.00 0.00
5:53 pm 17:53 Sunny 80 26.7 67 19.4 64 64 SSW 9 15 29.96 1014 10 16 0.00 0.00
6:53 pm 18:53 Partly Cloudy 81 27.2 67 19.4 62 62 SE 7 11 29.96 1014 10 16 0.00 0.00
7:38 pm 19:38 Cloudy with Light Rain 73 22.8 70 21.1 90 90 ENE 20 31 29.94 1014 2 2 0.00 0.00
7:48 pm 19:48 Cloudy with Heavy Rain 72 22 70 21 94 94 ESE 17 28 29.97 1015 1 1 0.00 0.00
7:50 pm 19:50 Cloudy with Heavy Rain 72 22 70 21 94 94 SE 14 22 29.97 1015 1 1 0.00 0.00
7:53 pm 19:53 Cloudy with Heavy Rain 72 22.2 69 20.6 91 91 SSE 16 26 29.99 1016 1 1 0.00 0.00
8:00 pm 20:00 Cloudy with Heavy Rain 72 22.2 70 21.1 94 94 SSE 17 28 29.97 1015 1 1 0.17 4.32
8:05 pm 20:05 Cloudy with Rain 71 21.7 70 21.1 96 96 SSE 14 22 29.97 1015 1 2 0.18 4.57
8:09 pm 20:09 Cloudy with Light Rain 70 21.1 68 20 93 93 SSE 14 22 29.97 1015 3 5 0.18 4.57
8:43 pm 20:43 Cloudy with Nearby Thunderstorms 72 22.2 70 21.1 94 94 NNE 14 22 29.97 1015 10 16 0.18 4.57
8:53 pm 20:53 Cloudy with Nearby Thunderstorms 71 21.7 68 20 90 90 N 13 20 30.03 1017 10 16 0.18 4.57
9:02 pm 21:02 Cloudy with Nearby Thunderstorms 70 21.1 68 20 93 93 N 8 13 30.00 1016 9 14 0.01 0.25
9:12 pm 21:12 Cloudy with Nearby Thunderstorms 70 21.1 69 20.6 97 97 N 6 9 30.00 1016 4 6 0.05 1.27
9:18 pm 21:18 Cloudy with Nearby Thunderstorms 70 21.1 69 20.6 97 97 ENE 16 26 30.00 1016 2 3 0.18 4.57
9:26 pm 21:26 Cloudy with Heavy Rain 70 21.1 69 20.6 97 97 E 10 17 30.00 1016 1 2 0.34 8.64
9:34 pm 21:34 Cloudy with Heavy Rain 70 21.1 69 20.6 97 97 E 6 9 30.00 1016 2 3 0.40 10.16
9:40 pm 21:40 Cloudy with Rain 70 21.1 69 20.6 97 97 ESE 6 9 30.00 1016 5 8 0.41 10.41
9:49 pm 21:49 Cloudy with Nearby Thunderstorms 70 21.1 69 20.6 97 97 SE 7 11 30.05 1018 6 10 0.42 10.67
10:09 pm 22:09 Cloudy with Rain 70 21.1 69 20.6 97 97 ESE 5 7 30.03 1017 5 8 0.05 1.27
10:18 pm 22:18 Cloudy with Nearby Thunderstorms 71 21.7 70 21.1 96 96 E 3 6 30.03 1017 4 6 0.10 2.54
10:33 pm 22:33 Cloudy with Heavy Rain 71 21.7 70 21.1 96 96 E 3 6 30.03 1017 4 6 0.17 4.32
10:53 pm 22:53 Cloudy with Rain 71 21.7 70 21.1 96 96 SSE 3 6 30.06 1018 5 8 0.24 6.10
11:53 pm 23:53 Mostly Clear with Light Rain 71 21.7 69 20.6 94 94 ESE 7 11 30.05 1018 9 14 0.06 1.52

Powered by AerisWeather